Location: Spring Creek
(38.2870°N, 100.2160°W)
Time: 08:55:51
(UTC+00:00)

Meteor 1-5 Rocket - Pass Details

Date: 08 May 2021
Orbit: 788 x 916 km, 81.2° (Epoch: 21 June)

Event Time Altitude Azimuth Distance (km) Brightness Sun altitude
Rises 04:34:15 0° 350° (N) 3,351 8.3 -27.5°
Reaches altitude 10° 04:36:40 10° 350° (N) 2,400 7.4 -27.8°
Enters shadow 04:41:45 79° 337° (NNW) 815 4.1 -28.3°
